Regional Weather Roundup
Issued by NWS

Home | Current Version | Previous Version | Graphics & Text | Print | Product List | Glossary Off
Versions: 1 2 3 4 5 6 7 8 9 10 11 12 13 14 15 16 17 18 19 20 21 22 23 24 25 26 27 28 29 30 31 32 33 34 35 36 37 38 39 40 41 42 43 44 45 46 47 48 49 50

000
ASUS43 KTOP 152108
RWRKS

WEATHER ROUNDUP FOR KANSAS
NATIONAL WEATHER SERVICE GOODLAND KS
400 PM CDT MON SEP 15 2014

NOTE:  "FAIR" INDICATES FEW OR NO CLOUDS BELOW 12,000 FEET WITH NO
SIGNIFICANT WEATHER AND/OR OBSTRUCTIONS TO VISIBILITY.

KSZ001>006-013>018-027>032-041>047-152200-
NORTHWEST KANSAS

CITY           SKY/WX    TMP DP  RH WIND       PRES   REMARKS
GOODLAND       MOSUNNY   67  50  54 VRB5      30.30F
HAYS           FAIR      72  54  53 NE15      30.22F
HILL CITY      FAIR      73  49  42 NE9G22    30.24F
RUSSELL        FAIR      71  54  54 NE14G24   30.20S
$$

KSZ061>065-074>080-084>089-152200-
SOUTHWEST KANSAS

CITY           SKY/WX    TMP DP  RH WIND       PRES   REMARKS
DODGE CITY     CLOUDY    61  56  83 N20       30.22F
ELKHART          N/A     58  55  90 N12         N/A
GARDEN CITY    CLOUDY    63  54  72 NE17      30.24F
GREAT BEND     CLOUDY    64  55  72 NE10      30.21S
LIBERAL        CLOUDY    64  55  72 NE20      30.23R
PRATT          CLOUDY    63  55  77 NE20      30.19S
$$

KSZ066>073-081>083-090>101-152200-
SOUTHEAST KANSAS

CITY           SKY/WX    TMP DP  RH WIND       PRES   REMARKS
CHANUTE        PTSUNNY   82  66  58 N16G22    30.08S
COFFEYVILLE    FAIR      87  67  51 W9        30.06F
HUTCHINSON     CLOUDY    67  59  75 N15G22    30.17R
MEDICINE LODGE   N/A     80  62  54 N20G25    30.11F
NEWTON         CLOUDY    66  57  72 NE20      30.17S
PARSONS        FAIR      87  66  49 SW7       30.07F
WICHITA INTL   FAIR      80  63  55 N17G25    30.12R
WICHITA JABRA  FAIR      76  63  64 N21       30.12R
WICHITA MCCONL FAIR      78  65  62 NE17      30.12R
WINFIELD       CLOUDY    85  65  51 N12       30.08F
$$

KSZ007>012-019>026-033>040-048>060-102>105-152200-
NORTHEAST KANSAS

CITY           SKY/WX    TMP DP  RH WIND       PRES   REMARKS
CONCORDIA      FAIR      70  52  52 NE16      30.20F
EMPORIA        CLOUDY    68  62  81 N12G22    30.15S
LAWRENCE       CLOUDY    69  59  70 N8        30.15S
MANHATTAN      FAIR      73  57  57 NE13      30.17S
MARYSVILLE     FAIR      68  52  56 NE17      30.20S
OLATHE IND     CLOUDY    68  62  81 N13       30.15S
OLATHE EXE     CLOUDY    68  61  78 N9        30.13S
SALINA         CLOUDY    71  57  61 NE9       30.18F
TOPEKA BILLARD CLOUDY    69  60  73 N8        30.16F
TOPEKA FORBES  CLOUDY    69  59  70 N12       30.16S
$$



USA.gov is the U.S. government's official web portal to all federal, state and local government web resources and services.